Powrót do katalogu

STARLINK-33845

AktywnyŁącznośćVLEO
NORAD 63495·PAYLOAD·🇺🇸 United States

Wystrzelony Apr 7, 2025 z Vandenberg Space Force Base

Loading…

Następne Przeloty (najbliższe 24 godziny)

TLE

ŚwieżeSource: CelesTrak SupGP

Epoka: Sep 15, 2026, 03:51 UTC

1 63495C 25071C   26258.16090278  .00066391  00000+0  19618-2 0  2587
2 63495  53.1596 338.8753 0001480  87.5473 234.3507 15.34353601    18

Śledź STARLINK-33845 w czasie rzeczywistym z AllMySat

Download on the App Store